"Period start","avg(HW err(1)/warn(2) (#))","avg(Visibility (m))","avg(Weather code (#))","avg(Precip intensity (mm/h))","min(HW err(1)/warn(2) (#))","max(HW err(1)/warn(2) (#))","std(HW err(1)/warn(2) (#))","med(HW err(1)/warn(2) (#))","min(Visibility (m))","max(Visibility (m))","std(Visibility (m))","med(Visibility (m))","min(Weather code (#))","max(Weather code (#))","std(Weather code (#))","med(Weather code (#))","min(Precip intensity (mm/h))","max(Precip intensity (mm/h))","std(Precip intensity (mm/h))","med(Precip intensity (mm/h))"
2017-07-14 00:00:00,2,50000,0,0.00,2,2,0,2,50000,50000,0,50000,0,0,0,0,0.00,0.00,0.00,0.00
2017-07-14 00:10:00,2,49449,0,0.00,2,2,0,2,46775,50000,960,50000,0,0,0,0,0.00,0.00,0.00,0.00
2017-07-14 00:20:00,2,46656,0,0.00,2,2,0,2,38891,50000,3826,48051,0,0,0,0,0.00,0.00,0.00,0.00
2017-07-14 00:30:00,2,44833,0,0.00,2,2,0,2,33846,50000,5974,47804,0,0,0,0,0.00,0.00,0.00,0.00
2017-07-14 00:40:00,2,44586,0,0.00,2,2,0,2,37429,50000,5054,44630,0,0,0,0,0.00,0.00,0.00,0.00
2017-07-14 00:50:00,2,41867,0,0.00,2,2,0,2,27856,50000,7875,43186,0,0,0,0,0.00,0.00,0.00,0.00
2017-07-14 01:00:00,2,41362,0,0.00,2,2,0,2,29174,50000,6230,41300,0,0,0,0,0.00,0.00,0.00,0.00
2017-07-14 01:10:00,2,45423,0,0.00,2,2,0,2,35987,50000,4507,46154,0,0,0,0,0.00,0.00,0.00,0.00
2017-07-14 01:20:00,2,41826,0,0.00,2,2,0,2,31761,50000,6602,41830,0,0,0,0,0.00,0.00,0.00,0.00
2017-07-14 01:30:00,2,44608,0,0.00,2,2,0,2,32788,50000,6250,47543,0,0,0,0,0.00,0.00,0.00,0.00
2017-07-14 01:40:00,2,45301,0,0.00,2,2,0,2,38420,50000,3969,46320,0,0,0,0,0.00,0.00,0.00,0.00
2017-07-14 01:50:00,2,38579,0,0.00,2,2,0,2,24671,50000,8035,36380,0,0,0,0,0.00,0.00,0.00,0.00
2017-07-14 02:00:00,2,45942,0,0.00,2,2,0,2,33380,50000,5305,49080,0,0,0,0,0.00,0.00,0.00,0.00
2017-07-14 02:10:00,2,40341,0,0.00,2,2,0,2,32711,50000,7076,38138,0,0,0,0,0.00,0.00,0.00,0.00
2017-07-14 02:20:00,2,43999,0,0.00,2,2,0,2,28672,50000,6681,45338,0,0,0,0,0.00,0.00,0.00,0.00
2017-07-14 02:30:00,2,43279,0,0.00,2,2,0,2,32706,50000,6139,45704,0,0,0,0,0.00,0.00,0.00,0.00
2017-07-14 02:40:00,2,44964,0,0.00,2,2,0,2,34761,50000,5344,47252,0,0,0,0,0.00,0.00,0.00,0.00
2017-07-14 02:50:00,2,40328,0,0.00,2,2,0,2,24320,50000,9765,42904,0,0,0,0,0.00,0.00,0.00,0.00
2017-07-14 03:00:00,2,43430,0,0.00,2,2,0,2,36742,50000,4624,44408,0,0,0,0,0.00,0.00,0.00,0.00
2017-07-14 03:10:00,2,41485,0,0.00,2,2,0,2,27479,50000,7806,44064,0,0,0,0,0.00,0.00,0.00,0.00
2017-07-14 03:20:00,2,43505,0,0.00,2,2,0,2,34997,50000,5696,43520,0,0,0,0,0.00,0.00,0.00,0.00
2017-07-14 03:30:00,2,44489,0,0.00,2,2,0,2,34492,50000,5701,46724,0,0,0,0,0.00,0.00,0.00,0.00
2017-07-14 03:40:00,2,41551,0,0.00,2,2,0,2,30819,50000,6336,42494,0,0,0,0,0.00,0.00,0.00,0.00
2017-07-14 03:50:00,2,39052,0,0.00,2,2,0,2,17022,47522,9077,43044,0,0,0,0,0.00,0.00,0.00,0.00
2017-07-14 04:00:00,2,43016,0,0.00,2,2,0,2,35463,50000,5448,43010,0,0,0,0,0.00,0.00,0.00,0.00
2017-07-14 04:10:00,2,47993,0,0.00,2,2,0,2,44808,50000,1936,48188,0,0,0,0,0.00,0.00,0.00,0.00
2017-07-14 04:20:00,2,45261,0,0.00,2,2,0,2,37056,50000,4551,45622,0,0,0,0,0.00,0.00,0.00,0.00
2017-07-14 04:30:00,2,46597,0,0.00,2,2,0,2,42117,50000,2797,46610,0,0,0,0,0.00,0.00,0.00,0.00
2017-07-14 04:40:00,2,44102,0,0.00,2,2,0,2,27921,50000,7133,46866,0,0,0,0,0.00,0.00,0.00,0.00
2017-07-14 04:50:00,2,44218,0,0.00,2,2,0,2,20762,50000,9063,47871,0,0,0,0,0.00,0.00,0.00,0.00
2017-07-14 05:00:00,2,42461,0,0.00,2,2,0,2,18576,50000,11155,48054,0,0,0,0,0.00,0.00,0.00,0.00
2017-07-14 05:10:00,2,49104,0,0.00,2,2,0,2,45660,50000,1427,50000,0,0,0,0,0.00,0.00,0.00,0.00
2017-07-14 05:20:00,2,46334,0,0.00,2,2,0,2,39823,50000,3250,47206,0,0,0,0,0.00,0.00,0.00,0.00
2017-07-14 05:30:00,2,48500,0,0.00,2,2,0,2,38382,50000,3468,50000,0,0,0,0,0.00,0.00,0.00,0.00
2017-07-14 05:40:00,2,50000,0,0.00,2,2,0,2,50000,50000,0,50000,0,0,0,0,0.00,0.00,0.00,0.00
2017-07-14 05:50:00,2,49814,0,0.00,2,2,0,2,48972,50000,374,50000,0,0,0,0,0.00,0.00,0.00,0.00
2017-07-14 06:00:00,2,48762,0,0.00,2,2,0,2,43891,50000,1797,49382,0,0,0,0,0.00,0.00,0.00,0.00
2017-07-14 06:10:00,2,46571,0,0.00,2,2,0,2,41365,50000,3516,47369,0,0,0,0,0.00,0.00,0.00,0.00
2017-07-14 06:20:00,2,48147,0,0.00,2,2,0,2,38826,50000,3803,50000,0,0,0,0,0.00,0.00,0.00,0.00
2017-07-14 06:30:00,2,49702,0,0.00,2,2,0,2,47025,50000,892,50000,0,0,0,0,0.00,0.00,0.00,0.00
2017-07-14 06:40:00,2,49809,0,0.00,2,2,0,2,48682,50000,415,50000,0,0,0,0,0.00,0.00,0.00,0.00
2017-07-14 06:50:00,2,47003,0,0.00,2,2,0,2,39575,50000,3960,49642,0,0,0,0,0.00,0.00,0.00,0.00
2017-07-14 07:00:00,2,49718,0,0.00,2,2,0,2,47880,50000,647,50000,0,0,0,0,0.00,0.00,0.00,0.00
2017-07-14 07:10:00,2,46081,0,0.00,2,2,0,2,34247,50000,5205,48732,0,0,0,0,0.00,0.00,0.00,0.00
2017-07-14 07:20:00,2,49180,0,0.00,2,2,0,2,42098,50000,2362,50000,0,0,0,0,0.00,0.00,0.00,0.00
2017-07-14 07:30:00,2,48033,0,0.00,2,2,0,2,37296,50000,4138,50000,0,0,0,0,0.00,0.00,0.00,0.00
2017-07-14 07:40:00,2,48402,0,0.00,2,2,0,2,41450,50000,2839,50000,0,0,0,0,0.00,0.00,0.00,0.00
2017-07-14 07:50:00,2,49452,0,0.00,2,2,0,2,46099,50000,1213,50000,0,0,0,0,0.00,0.00,0.00,0.00
2017-07-14 08:00:00,2,48087,0,0.00,2,2,0,2,41529,50000,2739,50000,0,0,0,0,0.00,0.00,0.00,0.00
2017-07-14 08:10:00,2,47814,0,0.00,2,2,0,2,42931,50000,2722,49797,0,0,0,0,0.00,0.00,0.00,0.00
2017-07-14 08:20:00,2,49533,0,0.00,2,2,0,2,46813,50000,1009,50000,0,0,0,0,0.00,0.00,0.00,0.00
2017-07-14 08:30:00,2,49139,0,0.00,2,2,0,2,44313,50000,1829,50000,0,0,0,0,0.00,0.00,0.00,0.00
2017-07-14 08:40:00,2,43165,0,0.00,2,2,0,2,19805,50000,11489,50000,0,0,0,0,0.00,0.00,0.00,0.00
2017-07-14 08:50:00,2,49964,0,0.00,2,2,0,2,49635,50000,110,50000,0,0,0,0,0.00,0.00,0.00,0.00
2017-07-14 09:00:00,2,47516,0,0.00,2,2,0,2,38495,50000,3732,50000,0,0,0,0,0.00,0.00,0.00,0.00
2017-07-14 09:10:00,2,50000,0,0.00,2,2,0,2,50000,50000,0,50000,0,0,0,0,0.00,0.00,0.00,0.00
2017-07-14 09:20:00,2,50000,0,0.00,2,2,0,2,50000,50000,0,50000,0,0,0,0,0.00,0.00,0.00,0.00
2017-07-14 09:30:00,2,49480,0,0.00,2,2,0,2,46715,50000,1084,50000,0,0,0,0,0.00,0.00,0.00,0.00
2017-07-14 09:40:00,2,49583,0,0.00,2,2,0,2,46339,50000,1087,50000,0,0,0,0,0.00,0.00,0.00,0.00
2017-07-14 09:50:00,2,44659,0,0.00,2,2,0,2,28424,50000,8313,50000,0,0,0,0,0.00,0.00,0.00,0.00
2017-07-14 10:00:00,2,49034,0,0.00,2,2,0,2,42461,50000,2242,50000,0,0,0,0,0.00,0.00,0.00,0.00
2017-07-14 10:10:00,2,47736,0,0.00,2,2,0,2,42475,50000,2538,48644,0,0,0,0,0.00,0.00,0.00,0.00
2017-07-14 10:20:00,2,35416,0,0.00,2,2,0,2,8236,50000,14954,42445,0,0,0,0,0.00,0.00,0.00,0.00
2017-07-14 10:30:00,2,13741,0,0.00,2,2,0,2,5812,30417,7752,11770,0,0,0,0,0.00,0.00,0.00,0.00
2017-07-14 10:40:00,2,47692,0,0.00,2,2,0,2,30960,50000,5706,50000,0,0,0,0,0.00,0.00,0.00,0.00
2017-07-14 10:50:00,2,48114,0,0.00,2,2,0,2,31201,50000,5638,50000,0,0,0,0,0.00,0.00,0.00,0.00
2017-07-14 11:00:00,2,24744,0,0.00,2,2,0,2,12714,33805,6566,23977,0,0,0,0,0.00,0.00,0.00,0.00
2017-07-14 11:10:00,2,9361,0,0.00,2,2,0,2,7539,11108,1166,9580,0,0,0,0,0.00,0.00,0.00,0.00
2017-07-14 11:20:00,2,34462,0,0.00,2,2,0,2,10082,50000,16789,42937,0,0,0,0,0.00,0.00,0.00,0.00
2017-07-14 11:30:00,2,43977,0,0.00,2,2,0,2,29290,50000,6948,47992,0,0,0,0,0.00,0.00,0.00,0.00
2017-07-14 11:40:00,2,35552,0,0.00,2,2,0,2,30136,45507,4455,34850,0,0,0,0,0.00,0.00,0.00,0.00
2017-07-14 11:50:00,2,41101,0,0.00,2,2,0,2,20481,50000,10707,44644,0,0,0,0,0.00,0.00,0.00,0.00
2017-07-14 12:00:00,2,49409,0,0.00,2,2,0,2,46398,50000,1150,50000,0,0,0,0,0.00,0.00,0.00,0.00
2017-07-14 12:10:00,2,50000,0,0.00,2,2,0,2,50000,50000,0,50000,0,0,0,0,0.00,0.00,0.00,0.00
2017-07-14 12:20:00,2,47938,0,0.00,2,2,0,2,41960,50000,3090,49939,0,0,0,0,0.00,0.00,0.00,0.00
2017-07-14 12:30:00,2,43762,0,0.00,2,2,0,2,31141,50000,7023,47175,0,0,0,0,0.00,0.00,0.00,0.00
2017-07-14 12:40:00,2,50000,0,0.00,2,2,0,2,50000,50000,0,50000,0,0,0,0,0.00,0.00,0.00,0.00
2017-07-14 12:50:00,2,28850,0,0.00,2,2,0,2,9838,50000,14468,22934,0,0,0,0,0.00,0.00,0.00,0.00
2017-07-14 13:00:00,2,49309,0,0.00,2,2,0,2,44813,50000,1579,50000,0,0,0,0,0.00,0.00,0.00,0.00
2017-07-14 13:10:00,2,27737,0,0.00,2,2,0,2,8069,50000,17072,18016,0,0,0,0,0.00,0.00,0.00,0.00
2017-07-14 13:20:00,2,24776,0,0.00,2,2,0,2,13930,36495,6564,25840,0,0,0,0,0.00,0.00,0.00,0.00
2017-07-14 13:30:00,2,39089,0,0.00,2,2,0,2,18360,50000,12744,47056,0,0,0,0,0.00,0.00,0.00,0.00
2017-07-14 13:40:00,2,44473,0,0.00,2,2,0,2,39110,50000,4525,43710,0,0,0,0,0.00,0.00,0.00,0.00
2017-07-14 13:50:00,2,49879,0,0.00,2,2,0,2,48794,50000,362,50000,0,0,0,0,0.00,0.00,0.00,0.00
2017-07-14 14:00:00,2,40407,0,0.00,2,2,0,2,25562,50000,9095,41390,0,0,0,0,0.00,0.00,0.00,0.00
2017-07-14 14:10:00,2,44063,0,0.00,2,2,0,2,33734,50000,5049,45086,0,0,0,0,0.00,0.00,0.00,0.00
2017-07-14 14:20:00,2,46561,0,0.00,2,2,0,2,34120,50000,5085,49268,0,0,0,0,0.00,0.00,0.00,0.00
2017-07-14 14:30:00,2,47808,0,0.00,2,2,0,2,43824,50000,2753,50000,0,0,0,0,0.00,0.00,0.00,0.00
2017-07-14 14:40:00,2,48875,0,0.00,2,2,0,2,44375,50000,1949,50000,0,0,0,0,0.00,0.00,0.00,0.00
2017-07-14 14:50:00,2,44256,0,0.00,2,2,0,2,31152,50000,7858,48941,0,0,0,0,0.00,0.00,0.00,0.00
2017-07-14 15:00:00,2,26685,0,0.00,2,2,0,2,12968,47795,10731,23218,0,0,0,0,0.00,0.00,0.00,0.00
2017-07-14 15:10:00,2,32555,0,0.00,2,2,0,2,9123,50000,16079,34616,0,0,0,0,0.00,0.00,0.00,0.00
2017-07-14 15:20:00,2,15547,0,0.00,2,2,0,2,4123,32725,9964,11959,0,0,0,0,0.00,0.00,0.00,0.00
2017-07-14 15:30:00,2,6443,8,0.00,2,2,0,2,3371,9975,1838,6365,0,10,4,10,0.00,0.00,0.00,0.00
2017-07-14 15:40:00,2,17207,10,0.00,2,2,0,2,4971,44658,13468,11057,10,10,0,10,0.00,0.00,0.00,0.00
2017-07-14 15:50:00,2,46176,3,0.00,2,2,0,2,36206,50000,4864,49212,0,10,5,0,0.00,0.00,0.00,0.00
2017-07-14 16:00:00,2,17385,0,0.00,2,2,0,2,5189,38020,11281,13210,0,0,0,0,0.00,0.00,0.00,0.00
2017-07-14 16:10:00,2,41468,0,0.00,2,2,0,2,30035,50000,7110,40714,0,0,0,0,0.00,0.00,0.00,0.00
2017-07-14 16:20:00,2,10016,2,0.00,2,2,0,2,1448,41252,10927,6770,0,10,4,0,0.00,0.00,0.00,0.00
2017-07-14 16:30:00,2,21417,10,0.00,2,2,0,2,2380,47398,14309,16768,10,10,0,10,0.00,0.00,0.00,0.00
2017-07-14 16:40:00,2,4894,10,0.00,2,2,0,2,1743,9400,2169,4330,10,10,0,10,0.00,0.00,0.00,0.00
2017-07-14 16:50:00,2,11645,10,0.00,2,2,0,2,5141,16059,3563,12582,10,10,0,10,0.00,0.00,0.00,0.00
2017-07-14 17:00:00,2,8000,10,0.00,2,2,0,2,3936,15769,3939,7044,10,10,0,10,0.00,0.00,0.00,0.00
2017-07-14 17:10:00,2,22803,6,0.00,2,2,0,2,8264,42378,9949,22368,0,10,5,10,0.00,0.00,0.00,0.00
2017-07-14 17:20:00,2,15057,2,0.00,2,2,0,2,1287,46433,16900,5558,0,10,4,0,0.00,0.00,0.00,0.00
2017-07-14 17:30:00,2,12935,10,0.00,2,2,0,2,1533,26117,7564,15314,10,10,0,10,0.00,0.00,0.00,0.00
2017-07-14 17:40:00,2,11604,4,0.00,2,2,0,2,6326,15961,3241,12126,0,10,5,0,0.00,0.00,0.00,0.00
2017-07-14 17:50:00,2,28226,0,0.00,2,2,0,2,10850,48728,13853,22414,0,0,0,0,0.00,0.00,0.00,0.00
2017-07-14 18:00:00,2,13140,0,0.00,2,2,0,2,2571,32113,7625,12362,0,0,0,0,0.00,0.00,0.00,0.00
2017-07-14 18:10:00,2,4263,10,0.00,2,2,0,2,1195,13338,3591,2782,10,10,0,10,0.00,0.00,0.00,0.00
2017-07-14 18:20:00,2,2546,10,0.00,2,2,0,2,1215,5004,1238,2498,10,10,0,10,0.00,0.00,0.00,0.00
2017-07-14 18:30:00,2,2457,10,0.00,2,2,0,2,1233,3561,700,2566,10,10,0,10,0.00,0.00,0.00,0.00
2017-07-14 18:40:00,2,3585,10,0.00,2,2,0,2,1408,10429,2739,2286,10,10,0,10,0.00,0.00,0.00,0.00
2017-07-14 18:50:00,2,2953,10,0.00,2,2,0,2,1644,3992,719,3095,10,10,0,10,0.00,0.00,0.00,0.00
2017-07-14 19:00:00,2,3491,10,0.00,2,2,0,2,2268,4757,832,3201,10,10,0,10,0.00,0.00,0.00,0.00
2017-07-14 19:10:00,2,1617,10,0.00,2,2,0,2,1196,2089,238,1620,10,10,0,10,0.00,0.00,0.00,0.00
2017-07-14 19:20:00,2,2618,10,0.00,2,2,0,2,1144,5051,1134,2358,10,10,0,10,0.00,0.00,0.00,0.00
2017-07-14 19:30:00,2,4005,10,0.00,2,2,0,2,2239,7245,1611,3396,10,10,0,10,0.00,0.00,0.00,0.00
2017-07-14 19:40:00,2,1629,10,0.00,2,2,0,2,944,3090,596,1671,10,10,0,10,0.00,0.00,0.00,0.00
2017-07-14 19:50:00,2,1892,10,0.00,2,2,0,2,1190,3447,683,1758,10,10,0,10,0.00,0.00,0.00,0.00
2017-07-14 20:00:00,2,1638,10,0.00,2,2,0,2,1169,2269,313,1596,10,10,0,10,0.00,0.00,0.00,0.00
2017-07-14 20:10:00,2,4472,10,0.00,2,2,0,2,1520,7992,2048,4360,10,10,0,10,0.00,0.00,0.00,0.00
2017-07-14 20:20:00,2,2375,10,0.00,2,2,0,2,1071,4652,1086,2143,10,10,0,10,0.00,0.00,0.00,0.00
2017-07-14 20:30:00,2,10994,10,0.00,2,2,0,2,6730,20019,3882,10127,10,10,0,10,0.00,0.00,0.00,0.00
2017-07-14 20:40:00,2,10427,7,0.00,2,2,0,2,4991,29591,7217,6784,0,10,5,10,0.00,0.00,0.00,0.00
2017-07-14 20:50:00,2,6108,10,0.00,2,2,0,2,3332,10598,2059,6164,10,10,0,10,0.00,0.00,0.00,0.00
2017-07-14 21:00:00,2,3551,10,0.00,2,2,0,2,2510,5988,1056,3120,10,10,0,10,0.00,0.00,0.00,0.00
2017-07-14 21:10:00,2,2936,10,0.00,2,2,0,2,1678,6574,1423,2534,10,10,0,10,0.00,0.00,0.00,0.00
2017-07-14 21:20:00,2,2719,10,0.00,2,2,0,2,1770,3309,433,2836,10,10,0,10,0.00,0.00,0.00,0.00
2017-07-14 21:30:00,2,6288,10,0.00,2,2,0,2,3463,8944,2288,6448,10,10,0,10,0.00,0.00,0.00,0.00
2017-07-14 21:40:00,2,6571,10,0.00,2,2,0,2,2587,10201,2098,6718,10,10,0,10,0.00,0.00,0.00,0.00
2017-07-14 21:50:00,2,9734,10,0.00,2,2,0,2,4944,14478,2980,10182,10,10,0,10,0.00,0.00,0.00,0.00
2017-07-14 22:00:00,2,22072,5,0.00,2,2,0,2,9932,37260,9295,19458,0,10,5,5,0.00,0.00,0.00,0.00
2017-07-14 22:10:00,2,15278,0,0.00,2,2,0,2,8433,21026,3523,15434,0,0,0,0,0.00,0.00,0.00,0.00
2017-07-14 22:20:00,2,18956,0,0.00,2,2,0,2,9106,34788,9545,15162,0,0,0,0,0.00,0.00,0.00,0.00
2017-07-14 22:30:00,2,8584,3,0.00,2,2,0,2,5549,13893,2582,8478,0,10,5,0,0.00,0.00,0.00,0.00
2017-07-14 22:40:00,2,12084,10,0.00,2,2,0,2,5447,22808,4495,12149,10,10,0,10,0.00,0.00,0.00,0.00
2017-07-14 22:50:00,2,37728,2,0.00,2,2,0,2,29415,47731,5786,37848,0,10,4,0,0.00,0.00,0.00,0.00
2017-07-14 23:00:00,2,40826,0,0.00,2,2,0,2,22727,50000,9622,44308,0,0,0,0,0.00,0.00,0.00,0.00
2017-07-14 23:10:00,2,15154,0,0.00,2,2,0,2,7695,33248,7824,12280,0,0,0,0,0.00,0.00,0.00,0.00
2017-07-14 23:20:00,2,12146,0,0.00,2,2,0,2,9060,15763,1712,12063,0,0,0,0,0.00,0.00,0.00,0.00
2017-07-14 23:30:00,2,10354,0,0.00,2,2,0,2,5001,16841,3511,11230,0,0,0,0,0.00,0.00,0.00,0.00
2017-07-14 23:40:00,2,20503,9,0.00,2,2,0,2,6607,29059,8049,24896,0,10,3,10,0.00,0.00,0.00,0.00
2017-07-14 23:50:00,2,10557,2,0.00,2,2,0,2,5889,20657,4278,9094,0,4,2,4,0.00,0.00,0.00,0.00
